Torna al catalogo

COSMOS 1867 COOLANT

AttivoLEO
NORAD 50794·DEBRIS·🇷🇺 Russia

Lanciato Jul 10, 1987 da Baikonur Cosmodrome

Loading…

Prossimi Passaggi (prossime 24 ore)

TLE

In scadenzaSource: Space-Track

Epoca: Sep 11, 2026, 00:59 UTC

1 50794U 87060AW  26254.04150676  .00000243  00000-0  11990-3 0  9996
2 50794  65.0068 125.3839 0018334 281.0765  78.8259 14.35150690421191

Traccia COSMOS 1867 COOLANT in tempo reale con AllMySat

Download on the App Store